Location: Bucquoy
(50.1391°N, 2.7097°E)
Time: 07:09:19
(UTC+00:00)

Cosmos 1470 - Pass Details

Date: 06 May 2021
Orbit: 521 x 540 km, 82.5° (Epoch: 21 June)

Event Time Altitude Azimuth Distance (km) Brightness Sun altitude
Rises 01:42:16 0° 350° (N) 2,673 7.1 -18.5°
Reaches altitude 10° 01:44:25 10° 352° (N) 1,781 6.2 -18.4°
Maximum altitude 01:48:19 78° 79° (E) 548 2.8 -18.0°
Enters shadow 01:50:10 30° 162° (SSE) 970 3.7 -17.9°
